Time,TemperatureF,DewpointF,PressureIn,WindDirection,WindDirectionDegrees,WindSpeedMPH,WindSpeedGustMPH,Humidity,HourlyPrecipIn,Conditions,Clouds,dailyrainin,SoftwareType,DateUTC
2015-01-26 00:23:00,24.0,23.0,29.71,North,10,11.0,20.0,95,0.00,,,-99.99,,2015-01-26 05:23:00,
2015-01-26 00:43:00,24.0,23.0,29.71,NNE,13,13.0,18.0,95,0.00,,,-99.99,,2015-01-26 05:43:00,
2015-01-26 00:53:00,23.0,22.0,29.71,NNE,31,11.0,23.0,94,0.00,,,-99.99,,2015-01-26 05:53:00,
2015-01-26 01:22:00,23.0,22.0,29.71,NNE,18,15.0,21.0,94,0.00,,,-99.99,,2015-01-26 06:22:00,
2015-01-26 01:42:00,23.0,22.0,29.71,North,5,20.0,22.0,94,0.00,,,-99.99,,2015-01-26 06:42:00,
2015-01-26 01:52:00,22.0,21.0,29.71,North,5,19.0,23.0,94,0.00,,,-99.99,,2015-01-26 06:52:00,
2015-01-26 02:12:00,22.0,21.0,29.71,North,5,14.0,22.0,94,0.00,,,-99.99,,2015-01-26 07:12:00,
2015-01-26 02:22:00,22.0,21.0,29.72,North,5,16.0,23.0,94,0.00,,,-99.99,,2015-01-26 07:22:00,
2015-01-26 02:43:00,21.0,20.0,29.73,North,360,18.0,21.0,94,0.00,,,-99.99,,2015-01-26 07:43:00,
2015-01-26 02:52:00,21.0,20.0,29.73,North,5,19.0,22.0,94,0.00,,,-99.99,,2015-01-26 07:52:00,
2015-01-26 03:12:00,21.0,19.0,29.73,North,360,11.0,23.0,93,0.00,,,-99.99,,2015-01-26 08:12:00,
2015-01-26 03:23:00,21.0,19.0,29.73,North,360,16.0,23.0,93,0.00,,,-99.99,,2015-01-26 08:23:00,
2015-01-26 03:42:00,20.0,18.0,29.73,NNE,21,13.0,21.0,93,0.00,,,-99.99,,2015-01-26 08:42:00,
2015-01-26 03:52:00,20.0,18.0,29.73,North,5,13.0,23.0,93,0.00,,,-99.99,,2015-01-26 08:52:00,
2015-01-26 04:22:00,20.0,18.0,29.74,North,355,13.0,19.0,93,0.00,,,-99.99,,2015-01-26 09:22:00,
2015-01-26 04:43:00,21.0,19.0,29.74,North,355,15.0,20.0,93,0.00,,,-99.99,,2015-01-26 09:43:00,
2015-01-26 04:54:00,20.0,18.0,29.74,North,355,13.0,19.0,93,0.00,,,-99.99,,2015-01-26 09:54:00,
2015-01-26 05:13:00,20.0,18.0,29.74,North,355,12.0,19.0,93,0.00,,,-99.99,,2015-01-26 10:13:00,
2015-01-26 05:24:00,20.0,18.0,29.75,North,355,14.0,18.0,92,0.00,,,-99.99,,2015-01-26 10:24:00,
2015-01-26 05:43:00,20.0,18.0,29.76,NNW,341,14.0,18.0,92,0.00,,,-99.99,,2015-01-26 10:43:00,
2015-01-26 05:54:00,20.0,18.0,29.77,NNW,327,9.0,18.0,92,0.00,,,-99.99,,2015-01-26 10:54:00,
2015-01-26 06:13:00,20.0,18.0,29.77,NNW,334,15.0,18.0,92,0.00,,,-99.99,,2015-01-26 11:13:00,
2015-01-26 06:23:00,20.0,18.0,29.77,NNW,340,13.0,18.0,92,0.00,,,-99.99,,2015-01-26 11:23:00,
2015-01-26 06:43:00,20.0,18.0,29.77,NNW,344,13.0,18.0,91,0.00,,,-99.99,,2015-01-26 11:43:00,
2015-01-26 06:53:00,20.0,18.0,29.78,North,355,14.0,16.0,91,0.00,,,-99.99,,2015-01-26 11:53:00,
2015-01-26 07:13:00,20.0,18.0,29.79,NNW,338,12.0,16.0,91,0.00,,,-99.99,,2015-01-26 12:13:00,
2015-01-26 07:22:00,20.0,18.0,29.79,NNW,346,15.0,16.0,91,0.00,,,-99.99,,2015-01-26 12:22:00,
2015-01-26 07:42:00,20.0,18.0,29.80,NNW,342,11.0,15.0,91,0.00,,,-99.99,,2015-01-26 12:42:00,
2015-01-26 07:53:00,19.0,17.0,29.80,NNW,338,10.0,15.0,91,0.00,,,-99.99,,2015-01-26 12:53:00,
2015-01-26 08:23:00,19.0,17.0,29.81,NW,325,6.0,11.0,90,0.00,,,-99.99,,2015-01-26 13:23:00,
2015-01-26 08:42:00,18.0,16.0,29.82,NW,325,9.0,12.0,90,0.00,,,-99.99,,2015-01-26 13:42:00,
2015-01-26 08:52:00,17.0,15.0,29.83,NW,311,8.0,12.0,90,0.00,,,-99.99,,2015-01-26 13:52:00,
2015-01-26 09:12:00,17.0,15.0,29.83,NNW,346,12.0,13.0,90,0.00,,,-99.99,,2015-01-26 14:12:00,
2015-01-26 09:22:00,17.0,15.0,29.83,WNW,302,10.0,11.0,90,0.00,,,-99.99,,2015-01-26 14:22:00,
2015-01-26 09:42:00,17.0,15.0,29.84,NW,317,7.0,12.0,90,0.00,,,-99.99,,2015-01-26 14:42:00,